Flag for South Korea Weather past 2 weeks in Gunsan, South Korea

Now
73 °F

Sunny.


Feels Like: 75 °F
Forecast: 67 / 75 °F
Wind: 9 mph from Northwest

Location: Kunsan Ab

Current Time: Jul 6, 2015 at 7:19:21 PM

Latest Report: Jul 6, 2015 at 6:58 PM


Visibility: 10 mi

Pressure: 29.86 "Hg

Humidity: 71%

Dew point: 63 °F

Location of GunsanLocation

Historic Weather in Gunsan — Graph

°F

Gunsan temperature yesterday

Maximum temperature yesterday: 77 °F (at 3:58 PM)
Minimum temperature yesterday: 66 °F (at 3:58 AM)
Average temperature yesterday: 71 °F

Past Weeks' High & Low Weather Summary

 TemperatureHumidityPressure
High81 °F (Jun 23, 2:58 PM)100% (Jun 22, 4:58 AM)29.90 "Hg (Jun 22, 4:58 AM)
Low64 °F (Jul 4, 4:58 AM)49% (Jun 23, 2:58 PM)29.30 "Hg (Jun 26, 3:04 AM)
Average72 °F85%29.70 "Hg
* Reported Jun 21 5:58 PM — Jul 6 5:58 PM, Gunsan, Weather by CustomWeather, © 2015

Note: Actual official high and low records may vary slightly from our data, if they occured in-between our weather recording intervals... More about our weather records

Advertising

Gunsan weather history for previous 24 hours

 ConditionsComfort  
Time TempWeatherWind HumidityBarometerVisibility
5:58 PM
Mon, Jul 6
74 °FSunny.8 mph67%29.85 "Hg10 mi
4:58 PM76 °FSunny.8 mph64%29.84 "Hg10 mi
3:58 PM79 °FPassing clouds.10 mph57%29.84 "Hg10 mi
2:58 PM77 °FPassing clouds.10 mph62%29.86 "Hg10 mi
1:58 PM79 °FBroken clouds.10 mph63%29.85 "Hg10 mi
12:58 PM80 °FBroken clouds.12 mph58%29.86 "Hg10 mi
11:58 AM79 °FScattered clouds.8 mph61%29.87 "Hg10 mi
10:58 AM76 °FScattered clouds.5 mph64%29.89 "Hg10 mi
9:58 AM75 °FPassing clouds.3 mph70%29.88 "Hg10 mi
8:58 AM73 °FPassing clouds.6 mph75%29.89 "Hg10 mi
7:58 AM72 °FPassing clouds.3 mph84%29.88 "Hg9 mi
5:58 AM68 °FSunny.No wind91%29.89 "Hg10 mi
4:58 AM66 °FPassing clouds.2 mph94%29.89 "Hg10 mi
3:58 AM68 °FClear.3 mph89%29.89 "Hg10 mi
2:58 AM69 °FClear.No wind88%29.88 "Hg10 mi
1:58 AM68 °FPassing clouds.5 mph93%29.88 "Hg10 mi
12:58 AM69 °FPassing clouds.3 mph92%29.89 "Hg10 mi
11:58 PM
Sun, Jul 5
70 °FPassing clouds.2 mph87%29.89 "Hg10 mi
10:58 PM70 °FPassing clouds.No wind85%29.89 "Hg10 mi
9:58 PM71 °FClear.3 mph83%29.88 "Hg10 mi
8:58 PM70 °FClear.5 mph86%29.87 "Hg10 mi
7:58 PM71 °FClear.7 mph79%29.86 "Hg10 mi
Weather by CustomWeather, © 2015

See weather overviewHow to use our weather pages